Regional Weather Roundup
Issued by NWS Huntsville, AL

Home | Current Version | Previous Version | Text Only | Print | Product List | Glossary On
Versions: 1 2 3 4 5 6 7 8 9 10 11 12 13 14 15 16 17 18 19 20 21 22 23 24 25 26 27 28 29 30 31 32 33 34 35 36 37 38 39 40 41 42 43 44 45 46 47 48 49 50
000
ASUS44 KHUN 031810
RWRHUN

WEATHER ROUNDUP FOR THE TENNESSEE VALLEY
NATIONAL WEATHER SERVICE HUNTSVILLE AL
1200 PM CST TUE MAR 03 2015

ALZ001>004-031900-
NORTHWEST ALABAMA

CITY           SKY/WX    TMP DP  RH WIND       PRES   REMARKS
COURTLAND HCN    N/A     59 N/A N/A S7          N/A
RUSSELLVILLE     N/A     59 N/A N/A MISG        N/A
SHOALS AIRPORT CLOUDY    61  57  87 S7        30.09F
6HR MIN TEMP:  46; 6HR MAX TEMP:  61; 6HR PCP: TRACE;

$$

ALZ005>007-016-031900-
NORTH CENTRAL ALABAMA

CITY           SKY/WX    TMP DP  RH WIND       PRES   REMARKS
CULLMAN AG STN   N/A     55 N/A N/A CALM        N/A
DECATUR AP     CLOUDY    56  55  97 SE7       30.11F FOG
6HR MIN TEMP:  47; 6HR MAX TEMP:  56; 6HR PCP: TRACE;

HUNTSVILLE AP  CLOUDY    57  53  86 SE6       30.11F FOG
6HR MIN TEMP:  50; 6HR MAX TEMP:  57;

HUN NWS/UAH      N/A     54  52  90 S8          N/A
MERIDIANVILLE  CLOUDY    52  48  87 SE6       30.11F FOG
REDSTONE ARSN  CLOUDY    54  53  95 S7        30.10F
VINEMONT AP    DRIZZLE   55  55  99 S3        30.14F
$$

ALZ008>010-031900-
NORTHEAST ALABAMA

CITY           SKY/WX    TMP DP  RH WIND       PRES   REMARKS
ALBERTVILLE    LGT RAIN  54  54 100 S7        30.13F
FORT PAYNE     CLOUDY    54  48  82 CALM      30.14F
SCOTTSBORO AP  FOG       48  48 100 N3        30.14F VSB 1
SCOTTSBORO HCN   N/A     48 N/A N/A MISG        N/A
VALLEY HEAD      N/A     54 N/A N/A MISG        N/A
$$

TNZ076-096-097-031900-
SOUTHEASTERN MIDDLE TENNESSEE

CITY           SKY/WX    TMP DP  RH WIND       PRES   REMARKS
TULLAHOMA      CLOUDY    55  54  94 S10       30.09F
WINCHESTER     CLOUDY    55  54  94 S13       30.11F
$$

...SURROUNDING SITES...

CITY           SKY/WX    TMP DP  RH WIND       PRES   REMARKS
ATLANTA        RAIN      54  52  94 E9        30.20F VSB 1/2
ANNISTON       CLOUDY    57  55  93 NE6       30.16F FOG
BIRMINGHAM     CLOUDY    59  57  93 CALM      30.15F FOG
CHATTANOOGA    CLOUDY    52  50  93 S6        30.15F FOG
CORINTH        CLOUDY    55  54  94 S7        30.06F FOG
DALTON         CLOUDY    55  54  94 SE7       30.17F
GADSDEN        CLOUDY    50  46  87 CALM      30.15F
GOLDEN TRNGL   CLOUDY    57  55  94 S5        30.10F FOG
HALEYVILLE     FOG       57  57 100 S9        30.11F VSB 1/2
JACKSON TN     CLOUDY    57  54  89 S14       30.03S
LEWISBURG      CLOUDY    58  54  86 S10       30.06F
MEMPHIS        DRZL/FOG  55  53  93 S12       30.02F VSB 1/2
MURFREESBORO   CLOUDY    58  55  89 S10       30.05F
NASHVILLE      CLOUDY    60  55  83 SW15      30.04F
OXFORD MS      CLOUDY    55  55 100 S6        30.08S FOG
ROME           CLOUDY    53  51  93 SE3       30.17F FOG
SAVANNAH       CLOUDY    55  55 100 S6        30.06F
TUPELO         CLOUDY    56  53  90 SW8       30.08F FOG
TUSCALOOSA     FOG       59  59 100 W3        30.12F VSB 1/2
$$

...GULF COAST WEATHER...

CITY           SKY/WX    TMP DP  RH WIND       PRES   REMARKS
GULFPORT       CLOUDY    70  64  81 SE15      30.13F
PASCAGOULA     CLOUDY    73  65  75 SE12      30.14F
MOBILE         CLOUDY    71  64  78 SE12      30.15F
GULF SHORES    CLOUDY    70  64  81 SE10      30.17F
PENSACOLA      CLOUDY    66  64  93 SE9       30.17F FOG
DESTIN         CLOUDY    64  61  90 E6        30.19F
PANAMA CITY    SUNNY     69  63  80 S9        30.18F
APPALACHICOLA  CLOUDY    73  63  70 S10       30.19F
$$




USA.gov is the U.S. government's official web portal to all federal, state and local government web resources and services.